Location: Cassano d�Adda
(45.5333°N, 9.5167°E)
Time: 01:08:17
(UTC+00:00)

DMSP B5D1-3 - Pass Details

Date: 08 December 2019
Orbit: 766 x 781 km, 98.5° (Epoch: 20 January)

Event Time Altitude Azimuth Distance (km) Brightness Sun altitude
Exits shadow 18:12:58 71° 153° (SSE) 821 4.4 -26.2°
Drops below altitude 10° 18:17:38 10° 190° (S) 2,313 7.1 -27.0°
Sets 18:19:56 0° 192° (SSW) 3,233 8.0 -27.4°
